Tracking 35055 objects as of 18-Aug-2026
HD Live streaming from Space Station
objects crossing your sky now

DRISHTI

Track DRISHTI now!
10-day predictions
DRISHTI is classified as:


NORAD ID: 69010
Int'l Code: 2026-100AG
Launch date: May 3, 2026
Source: India (IND)
Launch site: AIR FORCE WESTERN TEST RANGE (AFWTR)

Uplink (MHz):
Downlink (MHz): 400.200/2240.000
Beacon (MHz):
Mode: 9k6_FSK FM
Call sign:
Status: Unknown

Your satellite tracking list
Your tracking list is empty




NASA's NSSDC Master Catalog

Two Line Element Set (TLE):
1 69010U 26100AG  26229.28858033  .00001457  00000-0  69378-4 0  9997
2 69010  97.3954 126.0005 0005673 156.5025 203.6471 15.20703866 16091
Source of the keplerian elements: AFSPC